Date String (YYYY-MM-DD hh:mm:ss) UTC,Instrument flags,Ambient pressure (hPa),Sample flow (lpm),Bypass flow (lpm),Sample temperature (°C),Ambient temperature (°C),ASC tube jacket temperature (°C),LED temperature (°C),Box temperature (°C),Sample RH (%),Span deviation,Mass concentration (μg/m³),Mass concentration (μg/m³),Mass concentration (μg/m³)
DateTimeUTC,F1_M11,P_M11,Q1_M11,Q2_M11,T1_M11,T2_M11,T3_M11,T4_M11,T5_M11,U1_M11,ZSPAN_M11,X0_M11,X2_M11,X1_M11
2022-09-11 07:00:00,,0835.1,5.00,0.00,28.7,27.3,00.0,37.5,30.6,27.2,0000.0,0009.19,0006.88,0006.55
2022-09-11 07:01:00,,0835.0,5.00,0.00,28.7,27.3,00.0,37.5,30.6,27.1,0000.0,0009.13,0006.86,0006.54
2022-09-11 07:02:00,,0835.0,5.00,0.00,28.7,27.3,00.0,37.5,30.6,27.0,-000.2,0009.05,0006.82,0006.53
2022-09-11 07:03:00,,0835.0,5.00,0.00,28.7,27.3,00.0,37.5,30.6,27.0,-000.4,0008.76,0006.76,0006.50
2022-09-11 07:04:00,,0835.0,5.00,0.00,28.7,27.3,00.0,37.5,30.6,27.0,-001.3,0008.63,0006.74,0006.49
2022-09-11 07:05:00,,0835.1,5.01,0.00,28.7,27.3,00.0,37.5,30.6,26.9,-001.2,0008.88,0006.72,0006.47
2022-09-11 07:06:00,,0835.0,5.00,0.00,28.7,27.3,00.0,37.5,30.6,26.9,-001.3,0008.84,0006.69,0006.45
2022-09-11 07:07:00,,0835.0,5.01,0.00,28.8,27.3,00.0,37.5,30.6,26.8,-001.6,0008.81,0006.66,0006.44
2022-09-11 07:08:00,,0835.0,5.00,0.00,28.8,27.3,00.0,37.5,30.6,27.0,-001.7,0008.75,0006.63,0006.43
2022-09-11 07:09:00,,0835.0,5.01,0.00,28.8,27.3,00.0,37.5,30.6,27.1,-001.9,0008.72,0006.61,0006.40
2022-09-11 07:10:00,,0835.0,5.00,0.00,28.8,27.3,00.0,37.5,30.6,27.2,-002.0,0008.63,0006.53,0006.34
2022-09-11 07:11:00,,0835.0,5.00,0.00,28.8,27.2,00.0,37.5,30.6,27.5,-002.1,0008.47,0006.35,0006.17
2022-09-11 07:12:00,,0835.0,5.00,0.00,28.7,27.1,00.0,37.5,30.6,27.0,-002.2,0008.27,0006.12,0005.97
2022-09-11 07:13:00,,0835.0,5.00,0.00,28.7,27.1,00.0,37.5,30.6,26.7,-002.3,0008.12,0005.94,0005.77
2022-09-11 07:14:00,,0835.0,5.00,0.00,28.7,27.1,00.0,37.5,30.6,26.6,-002.4,0007.95,0005.74,0005.59
2022-09-11 07:15:00,,0835.0,5.00,0.00,28.7,27.1,00.0,37.5,30.6,26.5,-002.4,0007.73,0005.54,0005.38
2022-09-11 07:16:00,,0835.0,5.00,0.00,28.7,27.1,00.0,37.5,30.5,26.2,-002.4,0007.37,0005.33,0005.19
2022-09-11 07:17:00,,0835.0,5.00,0.00,28.7,27.1,00.0,37.5,30.5,26.0,-001.3,0007.19,0005.14,0004.99
2022-09-11 07:18:00,,0835.0,5.01,0.00,28.7,27.1,00.0,37.4,30.5,25.9,0000.0,0006.84,0004.93,0004.79
2022-09-11 07:19:00,,0835.0,5.00,0.00,28.7,27.1,00.0,37.5,30.5,25.7,0000.0,0006.54,0004.72,0004.59
2022-09-11 07:20:00,,0835.0,5.00,0.00,28.7,27.1,00.0,37.5,30.5,25.4,0000.0,0006.22,0004.52,0004.38
2022-09-11 07:21:00,,0835.0,5.00,0.00,28.7,27.2,00.0,37.5,30.5,25.4,0000.0,0006.01,0004.35,0004.22
2022-09-11 07:22:00,,0834.9,5.00,0.00,28.7,27.1,00.0,37.5,30.5,25.3,0000.0,0005.99,0004.30,0004.16
2022-09-11 07:23:00,,0834.9,5.00,0.00,28.7,27.1,00.0,37.5,30.5,25.1,0000.0,0005.92,0004.26,0004.13
2022-09-11 07:24:00,,0835.0,5.01,0.00,28.7,27.1,00.0,37.5,30.5,25.1,0000.0,0005.77,0004.20,0004.09
2022-09-11 07:25:00,,0835.0,4.99,0.00,28.7,27.1,00.0,37.5,30.5,25.1,0000.0,0005.77,0004.18,0004.06
2022-09-11 07:26:00,,0835.0,4.99,0.00,28.7,27.1,00.0,37.5,30.5,25.1,0000.0,0005.62,0004.14,0004.04
2022-09-11 07:27:00,,0835.0,5.00,0.00,28.7,27.1,00.0,37.5,30.5,24.9,0000.0,0005.35,0004.09,0004.01
2022-09-11 07:28:00,,0835.0,5.00,0.00,28.7,27.1,00.0,37.5,30.5,24.8,0000.0,0005.27,0004.06,0003.99
2022-09-11 07:29:00,,0834.9,5.00,0.00,28.7,27.1,00.0,37.5,30.5,24.8,0000.0,0005.27,0004.05,0003.98
2022-09-11 07:30:00,,0834.9,5.00,0.00,28.7,27.1,00.0,37.5,30.5,24.7,0000.0,0005.30,0004.05,0003.97
2022-09-11 07:31:00,,0835.0,5.00,0.00,28.7,27.1,00.0,37.4,30.5,24.7,0000.0,0005.34,0004.07,0003.99
2022-09-11 07:32:00,,0834.9,5.00,0.00,28.7,27.1,00.0,37.4,30.5,24.6,0000.0,0005.30,0004.07,0004.00
2022-09-11 07:33:00,,0834.9,5.00,0.00,28.7,27.1,00.0,37.4,30.5,24.6,0000.0,0005.31,0004.08,0004.00
2022-09-11 07:34:00,,0835.0,5.00,0.00,28.7,27.1,00.0,37.4,30.5,24.6,0000.0,0005.39,0004.11,0004.02
2022-09-11 07:35:00,,0834.9,5.00,0.00,28.7,27.1,00.0,37.4,30.5,24.6,0000.0,0005.59,0004.16,0004.06
2022-09-11 07:36:00,,0835.0,5.00,0.00,28.7,27.1,00.0,37.4,30.5,24.6,0000.0,0005.69,0004.19,0004.10
2022-09-11 07:37:00,,0834.9,4.99,0.00,28.7,27.0,00.0,37.4,30.5,24.6,0000.0,0005.75,0004.22,0004.13
2022-09-11 07:38:00,,0834.8,5.00,0.00,28.6,27.0,00.0,37.4,30.5,24.6,0000.0,0006.40,0004.26,0004.17
2022-09-11 07:39:00,,0834.9,5.00,0.00,28.6,27.0,00.0,37.4,30.5,24.6,0000.0,0006.48,0004.31,0004.21
2022-09-11 07:40:00,,0834.8,5.01,0.00,28.6,27.0,00.0,37.4,30.5,24.6,-000.2,0006.55,0004.35,0004.25
2022-09-11 07:41:00,,0834.8,5.00,0.00,28.6,27.0,00.0,37.4,30.5,24.6,0000.0,0006.61,0004.38,0004.29
2022-09-11 07:42:00,,0834.7,5.01,0.00,28.6,27.0,00.0,37.4,30.5,24.7,0000.0,0006.76,0004.42,0004.32
2022-09-11 07:43:00,,0834.8,5.01,0.00,28.6,27.0,00.0,37.4,30.5,24.7,0000.0,0006.93,0004.46,0004.36
2022-09-11 07:44:00,,0834.7,4.99,0.00,28.6,27.0,00.0,37.4,30.5,24.8,0000.0,0007.02,0004.51,0004.40
2022-09-11 07:45:00,,0834.7,5.01,0.00,28.6,27.0,00.0,37.4,30.5,24.9,0000.0,0007.04,0004.54,0004.44
2022-09-11 07:46:00,,0834.7,4.98,0.00,28.6,27.1,00.0,37.4,30.4,25.0,0000.0,0006.99,0004.56,0004.46
2022-09-11 07:47:00,,0834.7,5.00,0.00,28.6,27.1,00.0,37.4,30.4,25.0,0000.0,0006.97,0004.59,0004.49
2022-09-11 07:48:00,,0834.6,5.00,0.00,28.6,27.1,00.0,37.4,30.5,25.0,0000.0,0007.06,0004.63,0004.53
2022-09-11 07:49:00,,0834.7,5.00,0.00,28.6,27.1,00.0,37.4,30.5,25.0,0000.0,0006.71,0004.66,0004.55
2022-09-11 07:50:00,,0834.7,5.00,0.00,28.6,27.0,00.0,37.4,30.5,25.0,0000.0,0006.58,0004.69,0004.58
2022-09-11 07:51:00,,0834.7,5.00,0.00,28.6,27.0,00.0,37.4,30.4,25.0,0000.0,0006.63,0004.73,0004.60
2022-09-11 07:52:00,,0834.7,5.00,0.00,28.6,27.0,00.0,37.4,30.4,25.1,0000.0,0006.68,0004.74,0004.61
2022-09-11 07:53:00,,0834.6,5.01,0.00,28.6,26.9,00.0,37.4,30.4,25.1,0000.0,0006.65,0004.75,0004.63
2022-09-11 07:54:00,,0834.7,5.00,0.00,28.6,26.9,00.0,37.3,30.4,25.1,0000.0,0006.48,0004.74,0004.63
2022-09-11 07:55:00,,0834.7,5.01,0.00,28.5,26.8,00.0,37.3,30.3,25.2,0000.0,0006.49,0004.75,0004.64
2022-09-11 07:56:00,,0834.7,4.99,0.00,28.5,26.6,00.0,37.3,30.2,25.3,0000.0,0006.65,0004.78,0004.65
2022-09-11 07:57:00,,0834.7,5.00,0.00,28.4,26.5,00.0,37.3,30.2,25.3,0000.0,0006.67,0004.79,0004.65
2022-09-11 07:58:00,,0834.6,5.02,0.00,28.4,26.6,00.0,37.3,30.2,25.3,0000.0,0006.69,0004.79,0004.64
2022-09-11 07:59:00,,0834.6,5.00,0.00,28.4,26.5,00.0,37.3,30.2,25.6,0000.0,0006.73,0004.79,0004.64
